SL-14 DEB, 47087

Orbit data source: Space-Track

SL-14 DEB, 47087 is space debris in LEO originally from a launch on Thu, 15 Aug 1991 UTC launched from the Plesetsk Missile And Space Complex (PKMTR). Debris objects in space refer to the collection of defunct objects orbiting the Earth. Examples of debris include non-operational satellites, rocket bodies, and fragments generated from explosions, collisions, or faulty payload assembly.

Loading next visibility...
Identifier
47087, 1991-056DM
Orbit
LEO
Country
Flag of CISCIS
Related business
Manufacturer
Unknown
Mission
Spacecraft
Bus & Motor
Unknown
Mass
Unknown
Launch date (UTC)
1991-08-15 (35 years ago)
Launch vehicle
Unknown
Launch site
Plesetsk Missile And Space Complex (PKMTR)
Object type
Payload
Rocket body
Debris
Shape & HBR
Unknown shape, 0.1 m
Radar Cross Section
Medium (>0.1 m² and <1 m²)

Expand to show TLE details & history
Last TLE update: 2 days ago

TLE from 2 days ago
0 SL-14 DEB
1 47087U 91056DM  26234.28267060  .00000147  00000-0  30930-3 0  9995
2 47087  82.5964  81.3962 0060391 218.8472 140.8307 13.24583652280330
Epoch: 2026-08-22T06:47Z
TLE epoch observation values (Epoch: 2026-08-22T06:47:02.739Z)
Latitude
-0.00004°
Longitude
9.03947°
Altitude
1,205.525 km
Speed
7.234 km/s
True Right ascension
05h 25m 35s
True Declination
0° 00' 00"
Sunlit
Object was in daylight at epoch
Visualization orbit readout
Latitude
Unknown
Longitude
Unknown
Altitude
Unknown
Speed
Unknown
Apparent Right ascension
Unknown
Apparent Declination
Unknown
Sunlit
N/A
Visualization observer readout
Local Sidereal Time
15:53:53
Azimuth
Unknown
Elevation
Unknown
Doppler factor
Unknown
Orbital elements
Apogee altitude
1,210.046 km
Perigee altitude
1,118.944 km
Semi-major axis
7,542.632 km
Eccentricity
0.00604
Inclination
82.5964°
RAAN
81.3962°
Arg. of periapsis
218.8472°
True anomaly
141.26525°
Mean anomaly
140.8307°
Eccentric anomaly
141.04823°
Mean motion
3.31329 °/min
Orbital period
108.65 mins
BSTAR
0.0003093
Loading maneuver chart data...
Computing Atmospheric mass density...
Loading historical data...
Loading historical data...
Loading historical data...
Loading historical data...
Loading historical data...
Loading historical data...
Loading historical data...

Documentation

Showing up to 5 results
|